Regional Weather Roundup
Issued by NWS

Home | Current Version | Previous Version | Text Only | Print | Product List | Glossary On
Versions: 1 2 3 4 5 6 7 8 9 10 11 12 13 14 15 16 17 18 19 20 21 22 23 24 25 26 27 28 29 30 31 32 33 34 35 36 37 38 39 40 41 42 43 44 45 46 47 48 49 50
000
ASUS45 KREV 231310
RWRNV
NEVADA REGIONAL WEATHER ROUNDUP
NATIONAL WEATHER SERVICE RENO NV
600 AM PDT SUN APR 23 2017

NOTE: "FAIR" INDICATES FEW OR NO CLOUDS BELOW 12,000 FEET WITH NO
SIGNIFICANT WEATHER AND/OR OBSTRUCTIONS TO VISIBILITY.

NVZ001-003-004-231400-
WESTERN NEVADA

CITY           SKY/WX    TMP DP  RH WIND       PRES   REMARKS
RENO           MOCLDY    45  30  55 N3        29.91R
CARSON CITY    FAIR      52  16  24 W6        29.90S
MINDEN         FAIR      45  25  45 E8        29.90S
FALLON         CLOUDY    40  29  64 CALM      29.89R
LOVELOCK       CLOUDY    48  30  49 NE10      29.89R
HAWTHORNE      CLEAR     50  32  50 W8        29.87R
$$

NVZ002-CAZ072-073-231400-
NORTHERN AND CENTRAL SIERRA

CITY           SKY/WX    TMP DP  RH WIND       PRES   REMARKS
S. LAKE TAHOE  MOCLDY    46  31  55 VRB7G18   29.93R
TRUCKEE        CLOUDY    41  21  45 SW8       29.94S
SQUAW VLY 8000   N/A     32  21  64 SW13        N/A
SUSANVILLE     CLEAR     41  36  81 SW5       29.93F
MAMMOTH LAKES  FAIR      49  20  30 S28G35    29.93S
BRIDGEPORT       N/A     47  27  45 SW16      29.91
$$

NVZ030-031-036-231400-
NORTHERN NEVADA

CITY           SKY/WX    TMP DP  RH WIND       PRES   REMARKS
ELKO           MOCLDY    43  35  73 CALM      29.88S
WINNEMUCCA     CLOUDY    45  34  65 W3        29.90R
WENDOVER       CLEAR     43  33  68 CALM      29.86F
$$

NVZ035-037-231400-
CENTRAL NEVADA

CITY           SKY/WX    TMP DP  RH WIND       PRES   REMARKS
ELY            CLEAR     37  25  61 S10       29.91S
EUREKA           N/A     32  25  75 S3        29.91R
$$

NVZ013-014-231400-
SOUTH CENTRAL NEVADA

CITY           SKY/WX    TMP DP  RH WIND       PRES   REMARKS
TONOPAH        CLEAR     42  32  67 N8        29.87F
$$

NVZ017-020-022-231400-
SOUTHERN NEVADA

CITY           SKY/WX    TMP DP  RH WIND       PRES   REMARKS
LAS VEGAS      MOCLDY    69  22  16 SE10      29.75S
N. LAS VEGAS   MOCLDY    64  30  27 CALM      29.76S
NELLIS AFB     MOCLDY    62  27  26 N8        29.75S
HENDERSON      MOCLDY    68  26  20 S14       29.80
MERCURY        MOCLDY    69  25  19 S15G21    29.77F
$$



USA.gov is the U.S. government's official web portal to all federal, state and local government web resources and services.